Theta_e
343 341 335 331 313 311 306 309 320 314 313 318 319 318 319 321 315 311 333 343 350 349 351 352 356 353 353 353 353 353 354 354 353 353 353 354 356 356 355 356 357 355 353 353 353 352 351 351 352
330 333 325 322 307 301 303 313 308 313 315 322 322 324 325 323 332 331 336 348 350 349 348 349 355 352 351 350 351 352 352 352 351 351 351 352 355 355 354 354 354 352 351 350 350 349 349 349 350
328 331 314 313 307 300 304 308 311 313 318 317 317 322 324 325 332 332 342 348 348 345 347 347 353 353 350 349 350 350 350 350 350 350 350 351 352 353 353 352 351 349 347 347 348 350 351 353 354
315 310 310 307 305 308 310 312 318 314 317 318 319 316 324 336 334 338 345 347 345 345 344 351 352 351 350 350 350 350 350 351 351 351 351 351 352 352 351 349 347 346 346 349 351 353 354 355 356
312 304 307 304 303 309 314 317 316 312 312 315 316 316 319 333 339 341 343 346 344 344 344 347 354 351 350 350 351 351 351 352 352 352 351 351 351 350 350 348 348 348 350 352 354 355 357 359 359
306 300 302 302 309 314 315 317 314 313 314 317 317 316 317 335 336 340 345 344 346 345 345 346 352 353 353 351 352 352 353 353 353 353 352 351 351 351 350 351 352 352 354 355 355 358 359 359 359
302 296 294 308 310 311 313 319 315 312 312 313 318 316 319 331 336 343 343 343 344 345 344 343 346 347 352 354 353 353 354 354 354 353 352 352 352 353 353 354 355 355 355 355 357 359 359 358 357
303 298 301 308 307 311 317 318 317 313 312 322 323 314 317 328 340 341 340 339 339 340 341 340 342 342 345 345 351 352 352 354 354 353 353 354 354 355 356 355 355 356 357 358 358 358 357 356 356
304 295 292 306 309 311 316 315 310 315 318 317 318 320 326 334 336 333 334 334 334 337 335 338 339 340 342 344 347 352 352 352 355 354 355 352 346 346 351 355 357 358 359 359 358 357 356 345 341
298 293 296 306 316 313 315 314 310 313 313 315 319 323 326 332 328 329 328 327 329 330 334 336 338 339 339 344 342 344 344 346 346 346 344 346 345 344 352 356 360 360 358 356 353 351 340 332 325
297 297 300 306 318 319 318 309 313 312 310 316 317 321 323 324 325 327 326 326 327 330 333 334 335 337 336 337 339 339 339 341 341 341 342 344 346 347 352 349 348 339 347 324 323 320 320 319 325
295 302 303 312 321 317 314 315 312 314 314 321 323 324 323 321 321 323 323 323 325 327 331 332 333 334 333 333 336 336 336 336 338 340 343 349 346 338 343 330 324 322 319 320 321 318 319 320 323
298 302 303 314 319 318 319 316 312 310 318 322 323 323 322 319 320 321 324 323 325 325 328 329 330 331 332 330 330 334 335 336 339 343 347 349 342 331 328 323 321 320 320 318 320 321 318 319 319
302 304 305 310 316 316 316 313 312 312 320 320 321 320 320 319 320 317 319 321 323 325 326 327 329 330 331 329 330 336 337 340 343 347 348 347 339 329 325 322 321 321 322 320 320 320 318 317 317
305 301 304 304 310 313 314 309 307 315 319 318 319 319 319 319 318 316 320 321 323 324 327 327 331 333 332 336 338 341 344 348 348 349 348 339 332 327 324 321 323 322 322 322 321 319 319 317 317
300 298 295 302 306 307 313 304 309 316 316 315 317 318 319 318 318 318 319 322 321 327 327 329 342 337 336 343 346 347 346 348 347 342 338 335 331 328 322 321 323 322 323 322 321 321 318 315 314
295 295 297 302 304 307 307 304 309 315 315 314 315 317 318 318 316 316 317 320 322 327 329 329 336 339 338 342 345 347 347 346 343 341 336 332 330 326 321 323 323 322 322 321 321 318 318 313 312
291 292 296 299 305 305 307 310 313 311 312 313 314 316 317 316 317 318 317 321 324 329 331 332 336 338 339 343 344 346 345 343 340 336 333 327 328 326 326 325 324 323 320 319 320 316 318 314 313
296 295 295 299 304 303 307 310 312 313 311 310 312 313 315 316 319 318 319 323 324 329 330 333 334 337 341 344 343 340 339 336 332 331 330 327 329 327 325 323 323 322 319 319 321 320 314 314 314
298 295 295 300 307 308 307 308 311 313 313 313 311 312 313 315 315 316 318 324 325 328 329 333 335 337 342 346 347 343 340 334 332 330 327 330 328 325 325 322 322 322 321 318 318 318 314 314 313
296 295 296 297 301 306 306 304 308 313 313 315 313 314 314 314 314 316 318 324 325 327 329 333 335 338 344 347 346 338 335 330 327 324 326 327 327 327 325 324 324 322 321 318 317 316 315 310 311
293 300 301 300 295 290 305 296 304 308 311 313 316 313 314 314 316 317 318 323 325 328 332 333 339 339 344 347 346 340 337 329 325 324 325 324 326 328 327 325 324 323 322 320 318 317 314 311 308
298 301 298 300 293 291 292 294 299 305 306 310 314 315 315 318 315 317 319 322 326 328 329 341 342 346 345 346 346 342 336 328 323 323 323 322 324 326 328 326 324 323 320 320 319 316 313 313 308
303 299 296 294 292 286 291 292 291 298 306 308 314 316 318 314 318 318 321 322 325 335 342 344 344 341 344 345 343 341 329 324 322 322 322 323 323 324 326 326 325 323 321 319 318 316 313 311 308
298 291 286 285 285 286 293 290 293 300 303 304 305 307 310 307 319 318 320 321 332 336 340 342 339 332 334 340 341 337 329 325 324 323 322 322 322 321 323 325 324 321 321 320 317 316 312 312 308
296 293 287 282 283 286 292 288 294 303 306 307 306 308 309 315 312 320 321 326 332 337 339 338 332 333 332 332 341 334 327 325 324 325 323 324 324 324 324 325 323 322 321 320 318 313 311 309 311
298 292 295 289 287 285 289 293 300 305 309 309 309 307 308 316 323 319 324 331 332 337 337 333 328 327 332 339 340 331 328 324 324 324 323 324 323 324 326 326 323 322 320 318 314 311 311 311 309
299 300 292 288 284 282 287 290 293 300 303 306 305 304 306 317 327 327 330 331 334 336 336 333 329 330 331 343 337 332 328 327 325 324 323 323 324 325 326 325 323 319 317 315 314 310 309 309 308
298 295 293 291 290 286 284 289 299 300 303 305 306 307 306 318 329 330 329 332 333 334 333 328 322 322 329 341 338 331 329 327 325 324 324 323 324 325 327 325 321 317 313 313 312 309 310 308 306
301 298 295 289 289 290 289 290 304 304 305 307 308 309 309 311 323 331 331 331 330 329 328 323 323 326 336 343 336 332 330 329 323 324 324 324 324 326 327 323 319 316 313 311 310 309 310 307 305
Wind_Speed
5 4 1 2 4 5 5 4 3 2 6 4 5 11 11 4 3 4 8 12 19 14 12 13 17 17 15 14 13 12 12 12 12 12 11 10 10 10 9 8 7 8 8 7 7 7 7 8 10
3 3 3 1 6 5 7 6 6 9 9 15 12 11 8 5 6 13 11 13 14 11 9 9 16 16 15 14 13 13 12 12 12 11 11 10 9 8 7 6 6 5 5 5 5 5 6 7 9
3 1 3 5 4 2 4 2 6 2 5 3 6 6 6 5 12 12 13 17 12 8 8 11 16 15 16 15 14 13 13 12 12 11 10 10 9 7 6 5 4 3 3 3 4 4 5 6 9
2 4 3 3 4 4 5 4 4 3 6 9 9 6 6 9 13 10 18 17 14 10 8 15 17 16 16 15 14 13 12 12 11 11 10 10 8 7 5 4 2 0 2 3 4 5 6 8 9
3 2 3 3 3 1 4 4 5 7 2 7 3 5 7 4 18 22 19 15 14 9 6 10 16 16 15 15 14 13 12 11 11 10 10 9 8 7 5 4 3 2 2 4 6 7 8 8 9
4 3 5 3 5 4 4 3 5 5 6 9 11 6 4 17 22 18 17 14 15 14 8 9 15 15 14 15 14 13 11 11 10 9 8 8 7 6 5 4 4 4 4 5 6 7 8 9 10
5 5 4 2 6 5 4 6 4 4 8 5 8 11 7 19 18 17 15 12 11 13 10 7 8 12 15 14 13 12 11 10 8 8 8 8 6 5 5 6 6 5 5 5 5 7 8 10 12
5 5 4 1 7 6 4 4 13 9 5 10 14 7 13 15 20 16 14 12 10 9 7 7 6 6 6 7 13 12 10 9 8 8 7 6 5 5 7 7 6 6 5 5 4 6 8 10 11
6 5 5 7 5 9 6 6 6 3 16 2 4 8 12 22 18 16 12 8 7 7 7 6 6 6 5 5 7 11 12 11 10 9 9 7 4 5 6 5 6 7 5 6 7 7 9 10 12
5 5 10 11 10 8 7 5 12 9 8 4 12 12 12 22 18 17 14 12 10 10 9 9 7 7 7 7 6 6 6 4 4 5 6 4 4 4 6 5 6 4 5 7 5 7 9 9 4
4 9 5 6 20 23 16 9 4 18 3 20 24 19 15 21 17 17 15 16 15 15 10 11 9 8 9 7 4 3 3 3 4 6 5 4 4 4 3 1 1 1 4 3 5 5 5 7 5
4 10 9 8 10 9 9 11 9 16 12 21 25 22 17 18 17 17 16 14 11 13 14 13 12 11 10 5 6 6 5 4 4 5 6 4 2 2 4 3 3 4 2 5 5 4 6 8 7
7 9 2 10 12 15 3 11 13 8 17 18 21 18 17 11 17 15 17 16 16 14 14 15 13 12 11 7 5 4 5 4 5 4 4 5 4 5 4 4 3 4 4 5 5 5 5 6 7
3 7 11 11 13 8 13 7 14 5 19 19 20 19 15 15 17 10 12 15 16 16 15 14 15 14 11 8 7 8 6 7 4 4 5 6 5 5 5 4 4 5 4 4 5 5 5 5 5
6 6 9 4 9 10 5 5 8 20 20 22 21 17 16 17 14 15 18 17 19 15 17 15 15 17 13 10 10 7 7 6 6 6 6 6 6 5 6 5 5 4 3 6 5 5 5 6 4
6 4 5 8 3 5 8 8 9 17 22 21 20 18 18 19 19 14 15 18 13 16 18 17 14 16 14 8 6 5 5 4 6 6 5 7 7 7 6 5 5 3 5 4 5 4 4 4 5
7 2 2 9 4 2 5 3 13 22 22 22 20 19 18 17 13 11 12 15 12 18 18 17 13 15 13 8 5 5 6 6 4 4 4 7 7 7 6 5 5 4 5 5 3 4 3 3 4
5 4 3 5 9 3 4 8 12 11 19 21 20 20 20 19 23 17 15 18 15 17 18 18 13 12 11 7 4 4 4 4 4 4 4 6 7 7 7 7 6 5 5 4 4 4 4 2 2
4 4 8 7 10 5 16 13 22 24 16 17 19 21 20 22 23 16 15 18 18 18 18 17 14 10 11 7 5 4 5 3 4 4 6 7 5 7 7 4 5 5 6 4 3 3 5 5 4
7 7 10 12 9 3 3 7 6 9 22 23 22 21 23 19 14 15 15 18 22 22 20 18 18 17 13 10 8 5 7 3 3 3 4 6 6 7 7 7 5 5 5 4 5 5 2 3 5
7 7 6 9 2 5 5 8 4 5 6 8 10 20 23 23 22 18 17 22 21 23 22 20 19 18 15 11 7 5 5 5 3 3 3 4 7 7 8 7 6 5 4 4 4 4 5 3 3
7 7 6 3 4 2 2 5 5 8 12 10 16 17 22 21 21 20 22 22 24 27 20 15 11 12 10 9 10 11 10 9 4 4 4 5 7 7 7 7 7 6 4 5 3 4 4 4 3
11 6 4 2 2 4 4 4 10 4 8 12 14 12 16 22 24 25 26 28 29 15 11 12 14 12 10 13 12 13 11 6 6 5 7 5 5 8 7 7 8 7 4 4 5 5 5 3 4
5 4 8 5 4 3 6 8 7 6 11 8 19 20 20 15 25 28 30 28 13 14 15 17 18 13 11 13 12 13 12 11 10 8 8 5 4 5 7 7 7 7 5 5 4 5 6 5 5
6 8 5 6 5 8 7 1 10 8 8 11 13 13 18 14 20 23 23 17 17 19 19 18 21 16 20 23 17 13 13 14 16 13 8 8 6 4 7 6 6 5 6 6 5 6 6 5 4
8 10 7 7 4 7 4 7 7 8 11 12 11 14 6 7 11 23 21 22 22 23 24 22 18 16 17 20 17 10 12 9 9 12 9 9 9 8 8 7 7 7 6 6 5 4 4 5 5
7 5 9 3 0 3 5 9 8 5 8 11 13 5 8 5 6 11 18 19 20 20 22 20 17 12 15 17 13 11 11 11 11 11 9 8 8 8 8 10 8 7 7 7 7 4 5 5 5
8 4 2 2 3 7 6 4 6 10 4 10 12 6 3 1 5 6 16 20 20 22 20 19 19 15 14 15 12 11 12 10 10 11 12 11 11 11 10 10 10 8 7 7 7 5 5 7 3
4 3 2 3 5 7 4 7 8 9 5 2 7 5 5 3 10 10 11 15 20 20 20 17 8 11 12 13 12 13 12 12 12 11 12 12 12 11 12 12 10 10 8 7 7 6 6 7 7
5 8 5 6 10 4 4 7 7 7 8 2 6 5 7 9 9 8 17 17 17 17 17 15 13 14 16 15 14 14 13 12 11 11 11 11 12 11 13 12 12 11 10 9 8 7 7 8 7
Wind_Direction
131 159 134 43 34 55 328 295 268 199 56 24 80 113 121 32 162 183 148 143 141 151 147 139 133 132 131 129 127 125 121 119 116 115 117 117 109 110 104 95 88 83 74 63 49 33 18 357 338
159 165 51 54 73 38 297 291 64 90 130 105 79 70 49 90 68 120 112 140 142 147 130 132 133 134 132 132 133 133 131 129 126 126 128 132 133 126 117 103 91 79 62 46 28 15 359 342 326
206 269 82 99 122 161 234 173 347 40 131 91 110 69 79 103 114 134 135 139 140 131 126 139 135 136 136 136 137 138 137 133 131 133 135 139 140 136 125 110 93 73 45 19 5 350 336 326 318
119 18 344 81 209 231 204 327 344 301 59 16 100 52 72 164 140 134 142 142 139 141 136 141 142 140 139 141 142 141 140 139 141 143 145 147 149 151 153 152 147 39 358 345 333 328 325 325 322
39 73 53 344 273 268 255 229 188 207 62 94 48 107 102 108 122 138 145 145 137 130 131 138 145 144 144 145 147 147 149 152 155 156 158 160 164 173 181 190 205 247 297 313 319 323 327 324 321
33 72 40 329 301 273 212 194 19 100 118 102 91 93 92 125 133 150 147 147 140 140 145 153 150 149 151 153 156 160 164 168 172 172 175 180 189 195 203 221 239 262 279 296 315 324 326 321 311
114 83 190 221 269 287 297 124 128 174 129 103 144 120 131 143 148 145 139 130 140 143 149 150 152 159 159 162 167 172 177 182 184 186 192 199 203 215 232 249 260 267 282 297 325 328 322 316 310
117 89 121 176 292 279 221 154 158 182 106 119 136 161 162 134 143 136 128 132 137 143 145 153 155 152 158 168 174 182 187 192 193 201 214 215 221 236 248 250 266 271 281 298 333 317 319 320 321
142 94 189 171 202 263 266 54 97 225 133 218 207 132 154 139 134 127 125 132 136 149 158 159 161 162 163 171 189 192 194 198 205 215 224 222 225 223 237 241 246 272 300 326 320 328 342 -0 14
141 139 214 190 209 212 267 169 165 128 139 76 106 131 130 142 141 140 155 161 165 163 179 176 172 171 171 181 195 199 207 207 206 221 233 229 230 241 251 240 241 278 317 339 13 21 18 22 33
228 226 183 203 203 210 189 183 143 131 168 157 153 165 160 152 154 158 170 163 176 179 173 180 178 178 181 192 181 202 210 211 213 220 230 232 222 228 214 29 357 348 74 49 47 39 33 25 42
228 251 148 249 206 161 205 139 152 160 181 166 157 164 165 152 167 171 172 176 167 178 181 179 183 181 193 186 185 194 197 202 211 217 232 178 146 67 104 92 89 83 47 62 45 47 25 35 40
200 271 211 209 192 195 213 180 157 203 149 157 153 164 169 163 169 174 177 177 175 180 183 181 180 186 193 183 187 186 205 206 211 190 195 142 131 105 103 111 93 67 81 60 54 54 30 35 17
297 285 291 196 187 191 197 217 121 206 146 156 163 169 180 172 181 172 177 185 181 180 186 174 182 188 184 181 190 197 188 206 190 159 152 138 128 122 119 105 77 48 71 79 73 68 55 33 40
289 314 336 147 210 218 189 97 177 157 155 161 175 175 182 185 189 184 186 180 184 184 182 169 178 191 183 178 199 198 192 178 157 148 145 121 107 113 128 109 81 91 71 73 59 51 46 32 28
333 39 36 287 103 240 127 221 148 160 158 174 178 183 190 197 194 200 193 190 173 169 173 170 176 172 167 179 171 161 161 145 131 131 144 136 126 137 125 105 103 98 78 72 62 45 59 38 39
359 259 273 307 239 161 98 148 177 171 174 177 182 185 195 196 203 197 191 193 173 172 171 177 173 168 163 168 172 140 138 132 125 116 150 143 129 136 116 107 104 91 79 66 61 42 88 44 15
258 341 320 268 291 58 155 162 142 201 188 182 186 190 200 201 205 199 183 187 174 178 179 179 172 169 155 158 127 97 100 107 101 148 173 131 135 122 110 115 122 107 86 77 67 79 58 71 36
266 245 263 281 267 226 217 181 170 184 192 187 194 195 203 209 206 197 184 179 174 180 177 178 171 174 155 159 138 124 154 139 161 192 127 118 134 111 111 105 102 100 99 119 124 99 68 22 26
241 243 269 276 245 126 17 234 46 166 195 196 198 197 207 211 207 204 179 180 181 181 182 182 180 171 175 172 164 147 151 163 149 135 109 124 142 132 125 130 125 122 110 90 80 84 84 46 5
252 203 236 235 299 34 88 337 310 300 239 212 216 208 207 202 205 201 185 189 184 188 185 184 182 176 170 166 140 76 72 62 87 107 131 148 162 138 134 140 126 128 120 121 98 104 111 121 26
265 207 239 269 74 273 126 253 265 233 223 215 234 200 213 211 213 200 193 191 193 197 184 168 167 163 160 164 171 166 171 164 177 160 183 159 143 135 141 138 138 137 142 124 139 107 105 112 89
233 203 166 173 106 121 305 101 268 280 295 255 241 232 218 216 204 203 196 196 202 157 137 117 116 103 83 319 203 184 176 161 148 140 148 142 137 134 140 144 140 132 151 138 133 105 95 94 105
256 22 25 49 67 305 241 155 268 227 223 257 258 253 249 223 209 205 201 200 147 137 132 142 138 144 158 203 243 209 164 152 148 151 158 163 135 146 154 142 137 138 148 145 141 114 108 108 101
79 55 346 340 336 249 250 323 222 260 250 226 249 238 233 197 211 211 203 179 149 148 152 161 160 172 198 199 209 196 165 162 164 166 162 159 155 160 171 136 137 140 152 146 133 122 114 123 114
246 157 163 226 221 261 259 249 262 226 273 279 252 254 248 196 203 202 182 166 160 162 166 169 176 179 196 195 209 173 162 164 163 176 169 174 172 165 160 137 138 146 147 139 124 115 123 122 122
257 183 189 147 322 25 239 299 321 307 333 331 306 248 199 180 145 148 158 161 163 166 175 174 177 199 189 199 183 164 172 163 167 167 169 177 155 155 157 146 145 155 144 142 132 133 139 116 114
154 194 113 352 211 263 271 272 240 301 311 329 351 29 138 128 105 120 156 165 173 175 173 183 187 194 184 182 168 167 170 162 163 167 176 174 161 160 157 149 153 146 139 139 135 155 140 113 105
317 348 54 124 139 194 242 264 229 239 247 16 329 322 307 212 177 170 171 176 175 176 179 185 160 158 175 178 166 166 171 165 167 179 188 166 160 155 159 154 155 145 146 143 153 150 145 131 126
163 188 141 126 286 242 192 252 256 245 236 259 335 310 262 177 198 218 174 176 175 181 181 186 179 178 190 179 167 170 163 164 170 177 188 158 165 158 163 158 153 151 153 158 150 154 156 138 133